Date,TemperatureHighF,TemperatureAvgF,TemperatureLowF,DewpointHighF,DewpointAvgF,DewpointLowF,HumidityHigh,HumidityAvg,HumidityLow,PressureMaxIn,PressureMinIn,WindSpeedMaxMPH,WindSpeedAvgMPH,GustSpeedMaxMPH,PrecipitationSumIn
2013-5-1,61,45,28,24,20,13,72,41,15,30.44,30.33,12,4,0,0.00
2013-5-2,73,57,41,26,18,2,49,26,6,30.43,30.11,11,4,0,0.00
2013-5-3,69,59,50,32,28,23,40,31,21,30.13,30.00,18,5,0,0.00
2013-5-4,66,57,49,34,30,28,47,36,26,30.02,29.78,23,8,0,0.00
2013-5-5,70,59,47,35,32,29,52,38,26,29.79,29.63,13,7,0,0.00
2013-5-6,77,65,54,42,34,30,46,34,21,29.70,29.56,15,6,0,0.00
2013-5-7,75,64,52,45,41,34,62,45,23,29.77,29.64,21,6,0,0.00
2013-5-8,79,62,50,47,41,34,71,49,20,29.90,29.77,15,3,0,0.00
2013-5-9,80,66,54,46,42,37,68,46,22,29.95,29.86,27,4,0,0.00
2013-5-10,82,68,55,53,44,39,61,44,22,29.99,29.91,13,3,0,0.02
2013-5-11,86,71,58,53,47,40,61,45,20,30.00,29.82,14,4,0,0.00
2013-5-12,80,68,58,51,46,39,75,46,26,29.86,29.76,22,5,0,0.00
2013-5-13,68,56,43,49,42,32,82,59,36,29.98,29.80,32,6,0,0.00
2013-5-14,64,52,39,40,37,34,85,60,33,30.01,29.91,15,4,0,0.00
2013-5-15,60,51,42,46,38,34,86,64,41,29.95,29.84,12,3,0,0.01
2013-5-16,58,48,40,46,41,37,91,78,49,29.89,29.77,14,3,0,0.03
2013-5-17,56,47,40,42,39,36,95,75,49,29.95,29.82,20,5,0,0.03
2013-5-18,56,46,37,41,36,32,88,69,50,30.14,29.96,24,6,0,0.01
2013-5-19,61,50,38,39,35,30,78,59,39,30.23,30.14,14,5,0,0.00
2013-5-20,76,58,40,43,36,29,80,50,19,30.17,29.72,15,4,0,0.00
2013-5-21,54,46,33,40,31,24,80,58,36,29.79,29.55,27,8,0,0.00
2013-5-22,46,39,29,29,26,20,77,60,46,29.88,29.79,15,4,0,0.00
2013-5-23,54,44,33,33,30,26,80,59,38,29.90,29.84,13,4,0,0.00
2013-5-24,55,45,35,35,32,28,89,64,37,29.93,29.85,18,5,0,0.00
2013-5-25,62,48,34,45,35,29,92,64,34,29.93,29.82,10,4,0,0.04
2013-5-26,60,50,43,45,41,35,96,74,41,29.90,29.81,13,3,0,0.15
2013-5-27,59,49,39,47,40,34,85,72,53,29.86,29.65,17,5,0,0.02
2013-5-28,64,53,42,42,38,32,88,61,32,29.76,29.61,16,3,0,0.02
2013-5-29,58,50,43,44,38,30,95,66,35,29.86,29.52,28,5,0,0.13
2013-5-30,57,47,34,37,34,31,88,64,44,30.09,29.86,17,5,0,0.00
2013-5-31,70,54,38,37,35,30,85,54,27,30.16,30.06,12,4,0,0.00